DB0DUS-10 Weather Reports


Display with metric or nautical units.
time (UTC)temp
F
wind
direction
speed
MPH
gust
MPH
rain 1hr
in
rain 24hr
in
rain mn
in
humidity
%
barometer
mb
20191019103613 58 206 7.0 16.0 0.00 0.04 0.04 82 1004.8
20191019102112 57 212 7.0 15.0 0.00 0.05 0.04 83 1004.9
20191019101113 57 163 10.0 18.0 0.00 0.05 0.04 84 1004.8
20191019095112 56 227 5.0 18.0 0.00 0.05 0.04 86 1004.9
20191019094613 56 210 12.0 16.0 0.00 0.05 0.04 86 1005.0
20191019092112 55 203 10.0 16.0 0.00 0.10 0.04 89 1004.7
20191019085613 54 163 4.0 15.0 0.01 0.10 0.04 89 1004.8
20191019083113 54 209 7.0 14.0 0.02 0.10 0.04 88 1004.9
20191019082115 54 209 8.0 15.0 0.03 0.10 0.04 89 1004.9
20191019080613 54 216 4.0 15.0 0.04 0.10 0.04 88 1005.0
20191019075135 54 191 5.0 18.0 0.03 0.09 0.03 87 1005.0
20191019074113 53 203 8.0 16.0 0.03 0.09 0.03 87 1004.9
20191019072112 54 203 9.0 17.0 0.01 0.07 0.01 85 1005.0
20191019071613 54 208 12.0 17.0 0.01 0.07 0.01 84 1005.0
20191019065112 55 171 6.0 17.0 0.00 0.06 0.00 79 1004.8
20191019062113 55 220 7.0 19.0 0.00 0.06 0.00 79 1004.9
20191019060113 54 230 6.0 15.0 0.00 0.06 0.00 79 1005.0
20191019055113 54 232 7.0 15.0 0.00 0.06 0.00 79 1005.0
20191019053613 54 194 5.0 15.0 0.00 0.06 0.00 79 1005.2
20191019052113 54 216 5.0 15.0 0.00 0.06 0.00 80 1005.2
20191019051113 54 206 13.0 16.0 0.00 0.06 0.00 80 1005.2
20191019045114 53 196 10.0 17.0 0.00 0.06 0.00 81 1005.5
20191019044613 53 189 7.0 19.0 0.00 0.06 0.00 81 1005.6
20191019042113 54 201 10.0 17.0 0.00 0.06 0.00 78 1005.8
20191019035614 54 223 5.0 19.0 0.00 0.06 0.00 77 1005.8
20191019035115 53 213 6.0 19.0 0.00 0.06 0.00 78 1005.7
20191019033113 53 223 6.0 20.0 0.00 0.06 0.00 78 1005.7
20191019032113 53 132 5.0 16.0 0.00 0.06 0.00 78 1005.8
20191019030614 53 160 7.0 15.0 0.00 0.06 0.00 78 1006.1
20191019025113 53 208 7.0 18.0 0.00 0.06 0.00 79 1006.3
20191019024114 53 213 5.0 18.0 0.00 0.06 0.00 79 1006.3
20191019022113 53 194 11.0 17.0 0.00 0.06 0.00 80 1006.4
20191019021614 53 199 12.0 16.0 0.00 0.06 0.00 79 1006.4
20191019015113 53 181 9.0 16.0 0.00 0.06 0.00 79 1006.5
20191019012614 53 220 9.0 15.0 0.00 0.06 0.00 79 1006.6
20191019012131 53 206 4.0 16.0 0.00 0.06 0.00 79 1006.6
20191019010114 52 185 11.0 14.0 0.00 0.06 0.00 79 1006.7
20191019005116 53 217 7.0 12.0 0.00 0.06 0.00 79 1006.9
20191019003614 53 213 6.0 11.0 0.00 0.06 0.00 77 1007.0
20191019002113 54 209 5.0 13.0 0.00 0.06 0.00 76 1007.1
20191019001114 54 198 11.0 13.0 0.00 0.06 0.00 76 1007.3
20191018235113 53 286 4.0 14.0 0.00 0.06 0.00 77 1007.6
20191018234614 53 210 7.0 16.0 0.00 0.06 0.00 77 1007.6
20191018232113 53 208 8.0 14.0 0.00 0.06 0.00 77 1007.6
20191018225614 53 230 9.0 14.0 0.00 0.06 0.00 76 1007.7
20191018225113 54 209 7.0 13.0 0.00 0.06 0.00 74 1007.7
20191018223114 55 220 7.0 11.0 0.00 0.06 0.00 71 1007.8
20191018222113 55 225 4.0 13.0 0.00 0.06 0.00 71 1007.8
20191018220614 54 222 7.0 13.0 0.00 0.06 0.00 71 1008.0
20191018215114 54 205 6.0 11.0 0.00 0.06 0.06 72 1008.0
20191018214114 54 229 5.0 14.0 0.00 0.06 0.06 72 1008.1
20191018212113 54 227 7.0 13.0 0.00 0.06 0.06 71 1008.2
20191018211614 54 215 8.0 13.0 0.00 0.06 0.06 71 1008.3
20191018205114 55 222 8.0 14.0 0.00 0.06 0.06 71 1008.3
20191018202614 55 223 8.0 14.0 0.00 0.06 0.06 69 1008.4
20191018202114 55 209 7.0 12.0 0.00 0.06 0.06 69 1008.5
20191018200115 55 212 6.0 15.0 0.00 0.06 0.06 69 1008.6
20191018195114 55 229 8.0 13.0 0.00 0.06 0.06 69 1008.7
20191018193614 55 225 5.0 11.0 0.00 0.06 0.06 69 1008.6
20191018192114 56 215 5.0 13.0 0.00 0.06 0.06 67 1008.6
20191018191114 56 216 8.0 18.0 0.00 0.06 0.06 66 1008.6
20191018185114 56 220 5.0 13.0 0.00 0.06 0.06 66 1008.8
20191018184614 56 181 10.0 15.0 0.00 0.06 0.06 66 1008.8
20191018182114 56 239 9.0 13.0 0.00 0.06 0.06 67 1008.9
20191018175615 56 239 9.0 14.0 0.00 0.06 0.06 66 1009.0
20191018175114 56 243 13.0 15.0 0.00 0.06 0.06 66 1008.9
20191018173115 56 198 5.0 16.0 0.00 0.06 0.06 65 1008.9
20191018172114 56 272 10.0 14.0 0.00 0.07 0.06 65 1008.8
20191018170615 57 0 6.0 18.0 0.00 0.07 0.06 64 1008.7
20191018165114 57 267 11.0 17.0 0.00 0.07 0.06 64 1008.5
20191018164117 57 262 10.0 17.0 0.00 0.07 0.06 63 1008.4
20191018162114 58 244 6.0 16.0 0.00 0.07 0.06 63 1008.5
20191018161615 59 264 16.0 18.0 0.00 0.07 0.06 62 1008.4
20191018155114 59 244 6.0 22.0 0.00 0.07 0.06 59 1008.3
20191018152615 61 285 22.0 22.0 0.00 0.07 0.06 55 1008.0
20191018152114 61 243 12.0 22.0 0.00 0.07 0.06 55 1008.0
20191018150115 61 237 12.0 19.0 0.00 0.07 0.06 55 1007.9
20191018145114 61 118 7.0 26.0 0.00 0.07 0.06 55 1007.6
20191018143615 60 270 13.0 22.0 0.00 0.07 0.06 57 1007.5
20191018142114 61 210 6.0 24.0 0.00 0.07 0.06 55 1007.3
20191018141115 62 271 5.0 28.0 0.00 0.07 0.06 54 1007.1
20191018135114 62 250 20.0 33.0 0.00 0.07 0.06 54 1007.1
20191018134616 62 132 4.0 27.0 0.00 0.07 0.06 53 1006.9
20191018132114 61 265 25.0 32.0 0.00 0.08 0.06 54 1006.1
20191018125615 60 7 7.0 29.0 0.00 0.08 0.06 59 1006.0
20191018125114 61 264 8.0 20.0 0.00 0.08 0.06 60 1006.2
20191018123116 59 244 14.0 39.0 0.00 0.08 0.06 65 1006.1
20191018122114 58 265 30.0 32.0 0.00 0.08 0.06 64 1005.9
20191018120615 56 272 9.0 30.0 0.00 0.08 0.06 72 1005.8
20191018115115 56 258 12.0 29.0 0.00 0.08 0.06 74 1005.8
20191018114115 55 262 9.0 17.0 0.00 0.08 0.06 74 1005.0
20191018112115 54 254 17.0 25.0 0.01 0.08 0.06 77 1005.4
20191018111615 54 216 10.0 27.0 0.01 0.08 0.06 80 1005.7
20191018105115 54 316 11.0 34.0 0.06 0.08 0.06 83 1005.4